TimePDT,TemperatureF,Dew PointF,Humidity,Sea Level PressureIn,VisibilityMPH,Wind Direction,Wind SpeedMPH,Gust SpeedMPH,PrecipitationIn,Events,Conditions,WindDirDegrees,DateUTC
12:56 AM,46.9,41.0,80,29.97,10.0,SSE,3.5,-,N/A,,Clear,150,2012-04-09 07:56:00
1:56 AM,46.0,41.0,83,29.98,10.0,SSE,4.6,-,N/A,,Clear,150,2012-04-09 08:56:00
2:56 AM,48.0,42.1,80,29.97,10.0,Calm,Calm,-,N/A,,Clear,0,2012-04-09 09:56:00
3:56 AM,46.0,41.0,83,29.98,10.0,Calm,Calm,-,N/A,,Clear,0,2012-04-09 10:56:00
5:56 AM,45.0,39.9,82,29.97,10.0,SSE,4.6,-,N/A,,Clear,160,2012-04-09 12:56:00
6:56 AM,46.0,39.0,76,29.97,10.0,Calm,Calm,-,N/A,,Clear,0,2012-04-09 13:56:00
7:56 AM,48.9,39.0,69,29.96,10.0,SSE,5.8,-,N/A,,Clear,150,2012-04-09 14:56:00
8:56 AM,53.1,39.0,59,29.96,10.0,Calm,Calm,-,N/A,,Clear,0,2012-04-09 15:56:00
9:56 AM,57.0,41.0,55,29.94,10.0,NNE,4.6,-,N/A,,Clear,20,2012-04-09 16:56:00
10:56 AM,57.9,43.0,58,29.94,10.0,Variable,3.5,-,N/A,,Mostly Cloudy,0,2012-04-09 17:56:00
11:56 AM,60.1,42.1,51,29.91,10.0,North,9.2,-,N/A,,Overcast,350,2012-04-09 18:56:00
12:56 PM,61.0,43.0,52,29.90,10.0,NNW,5.8,-,N/A,,Scattered Clouds,340,2012-04-09 19:56:00
1:56 PM,63.0,42.1,46,29.89,10.0,NNE,5.8,-,N/A,,Scattered Clouds,20,2012-04-09 20:56:00
2:56 PM,63.0,41.0,45,29.88,10.0,Calm,Calm,-,N/A,,Overcast,0,2012-04-09 21:56:00
3:56 PM,63.0,43.0,48,29.88,10.0,SE,4.6,-,N/A,,Clear,130,2012-04-09 22:56:00
4:56 PM,64.0,42.1,45,29.85,10.0,Calm,Calm,-,N/A,,Clear,0,2012-04-09 23:56:00
5:56 PM,63.0,45.0,52,29.86,10.0,Calm,Calm,-,N/A,,Clear,0,2012-04-10 00:56:00
6:56 PM,61.0,39.9,46,29.84,10.0,WNW,5.8,-,N/A,,Clear,290,2012-04-10 01:56:00
7:56 PM,55.9,46.0,69,29.83,10.0,North,6.9,-,N/A,,Clear,350,2012-04-10 02:56:00
8:56 PM,55.9,46.0,69,29.83,10.0,NW,4.6,-,N/A,,Clear,310,2012-04-10 03:56:00
9:56 PM,54.0,45.0,72,29.81,10.0,Calm,Calm,-,N/A,,Clear,0,2012-04-10 04:56:00
10:56 PM,51.1,45.0,80,29.80,10.0,Calm,Calm,-,N/A,,Clear,0,2012-04-10 05:56:00
11:56 PM,50.0,45.0,83,29.77,10.0,Calm,Calm,-,N/A,,Clear,0,2012-04-10 06:56:00